Time,TemperatureF,DewpointF,PressureIn,WindDirection,WindDirectionDegrees,WindSpeedMPH,WindSpeedGustMPH,Humidity,HourlyPrecipIn,Conditions,Clouds,dailyrainin,SoftwareType,DateUTC
2013-06-18 00:03:00,68.3,65.0,29.95,SSW,196,0.0,-999.0,90,-99.99,,,0.03,weatherlink.com 1.10,2013-06-18 04:03:00,
2013-06-18 00:18:00,68.4,65.0,29.94,SSW,203,0.0,-999.0,89,-99.99,,,0.03,weatherlink.com 1.10,2013-06-18 04:18:00,
2013-06-18 00:33:00,68.4,65.0,29.94,SSW,194,0.0,-999.0,89,-99.99,,,0.03,weatherlink.com 1.10,2013-06-18 04:33:00,
2013-06-18 00:48:00,68.5,65.0,29.93,SSW,213,0.0,-999.0,89,-99.99,,,0.03,weatherlink.com 1.10,2013-06-18 04:48:00,
2013-06-18 01:03:00,68.6,65.0,29.93,SW,215,0.0,-999.0,89,-99.99,,,0.04,weatherlink.com 1.10,2013-06-18 05:03:00,
2013-06-18 01:18:00,68.6,65.0,29.93,South,186,0.0,-999.0,89,-99.99,,,0.04,weatherlink.com 1.10,2013-06-18 05:18:00,
2013-06-18 01:33:00,68.6,65.0,29.92,SSE,162,0.0,-999.0,89,-99.99,,,0.04,weatherlink.com 1.10,2013-06-18 05:33:00,
2013-06-18 01:48:00,68.9,66.0,29.92,SW,215,0.0,-999.0,89,-99.99,,,0.04,weatherlink.com 1.10,2013-06-18 05:48:00,
2013-06-18 02:03:00,69.0,66.0,29.92,SW,228,5.0,-999.0,89,-99.99,,,0.04,weatherlink.com 1.10,2013-06-18 06:03:00,
2013-06-18 02:18:00,69.1,66.0,29.92,SSW,209,0.0,-999.0,90,-99.99,,,0.04,weatherlink.com 1.10,2013-06-18 06:18:00,
2013-06-18 02:33:00,69.1,66.0,29.91,SW,227,4.0,-999.0,89,-99.99,,,0.04,weatherlink.com 1.10,2013-06-18 06:33:00,
2013-06-18 02:48:00,69.2,66.0,29.92,South,188,9.0,-999.0,89,-99.99,,,0.04,weatherlink.com 1.10,2013-06-18 06:48:00,
2013-06-18 03:03:00,69.2,66.0,29.91,SSW,206,3.0,-999.0,89,-99.99,,,0.04,weatherlink.com 1.10,2013-06-18 07:03:00,
2013-06-18 03:18:00,69.2,66.0,29.91,South,179,5.0,-999.0,90,-99.99,,,0.05,weatherlink.com 1.10,2013-06-18 07:18:00,
2013-06-18 03:33:00,69.2,66.0,29.91,SSW,207,7.0,-999.0,90,-99.99,,,0.05,weatherlink.com 1.10,2013-06-18 07:33:00,
2013-06-18 03:49:00,69.0,66.0,29.90,SW,226,3.0,-999.0,91,-99.99,,,0.05,weatherlink.com 1.10,2013-06-18 07:49:00,
2013-06-18 04:04:00,68.8,66.0,29.89,South,187,6.0,-999.0,91,-99.99,,,0.05,weatherlink.com 1.10,2013-06-18 08:04:00,
2013-06-18 04:19:00,68.7,66.0,29.89,South,186,2.0,-999.0,90,-99.99,,,0.05,weatherlink.com 1.10,2013-06-18 08:19:00,
2013-06-18 04:34:00,68.5,66.0,29.91,NW,310,1.0,-999.0,90,-99.99,,,0.05,weatherlink.com 1.10,2013-06-18 08:34:00,
2013-06-18 04:49:00,68.5,66.0,29.89,WSW,254,5.0,-999.0,90,-99.99,,,0.05,weatherlink.com 1.10,2013-06-18 08:49:00,
2013-06-18 05:04:00,68.9,66.0,29.89,South,185,4.0,-999.0,90,-99.99,,,0.05,weatherlink.com 1.10,2013-06-18 09:04:00,
2013-06-18 05:19:00,68.8,66.0,29.91,NW,319,0.0,-999.0,90,-99.99,,,0.05,weatherlink.com 1.10,2013-06-18 09:19:00,
2013-06-18 05:34:00,68.7,66.0,29.89,WSW,243,0.0,-999.0,90,-99.99,,,0.05,weatherlink.com 1.10,2013-06-18 09:34:00,
2013-06-18 05:49:00,68.6,66.0,29.91,SW,221,0.0,-999.0,90,-99.99,,,0.05,weatherlink.com 1.10,2013-06-18 09:49:00,
2013-06-18 06:04:00,68.5,65.0,29.91,SW,216,0.0,-999.0,89,-99.99,,,0.05,weatherlink.com 1.10,2013-06-18 10:04:00,
2013-06-18 06:19:00,68.6,65.0,29.90,SW,216,0.0,-999.0,89,-99.99,,,0.05,weatherlink.com 1.10,2013-06-18 10:19:00,
2013-06-18 06:34:00,68.7,65.0,29.90,SW,225,0.0,-999.0,89,-99.99,,,0.05,weatherlink.com 1.10,2013-06-18 10:34:00,
2013-06-18 06:49:00,68.8,66.0,29.90,SW,223,0.0,-999.0,89,-99.99,,,0.05,weatherlink.com 1.10,2013-06-18 10:49:00,
2013-06-18 07:04:00,68.7,65.0,29.90,South,190,0.0,-999.0,89,-99.99,,,0.05,weatherlink.com 1.10,2013-06-18 11:04:00,
2013-06-18 07:19:00,68.9,66.0,29.91,West,267,5.0,-999.0,89,-99.99,,,0.05,weatherlink.com 1.10,2013-06-18 11:19:00,
2013-06-18 07:34:00,69.3,66.0,29.91,SW,221,3.0,-999.0,89,-99.99,,,0.06,weatherlink.com 1.10,2013-06-18 11:34:00,
2013-06-18 07:49:00,69.6,66.0,29.91,WSW,254,1.0,-999.0,89,-99.99,,,0.06,weatherlink.com 1.10,2013-06-18 11:49:00,
2013-06-18 08:04:00,69.8,67.0,29.92,South,183,4.0,-999.0,89,-99.99,,,0.06,weatherlink.com 1.10,2013-06-18 12:04:00,
2013-06-18 08:19:00,70.0,67.0,29.93,SSW,203,1.0,-999.0,89,-99.99,,,0.06,weatherlink.com 1.10,2013-06-18 12:19:00,
2013-06-18 08:34:00,70.1,67.0,29.93,WSW,241,2.0,-999.0,89,-99.99,,,0.06,weatherlink.com 1.10,2013-06-18 12:34:00,
2013-06-18 08:49:00,70.5,67.0,29.93,South,191,1.0,-999.0,89,-99.99,,,0.06,weatherlink.com 1.10,2013-06-18 12:49:00,
2013-06-18 09:04:00,70.8,68.0,29.94,West,263,5.0,-999.0,89,-99.99,,,0.06,weatherlink.com 1.10,2013-06-18 13:04:00,
2013-06-18 09:19:00,71.0,68.0,29.94,SW,228,5.0,-999.0,89,-99.99,,,0.06,weatherlink.com 1.10,2013-06-18 13:19:00,
2013-06-18 09:34:00,71.4,68.0,29.94,WSW,248,5.0,-999.0,88,-99.99,,,0.06,weatherlink.com 1.10,2013-06-18 13:34:00,
2013-06-18 09:49:00,72.1,69.0,29.93,WSW,250,7.0,-999.0,89,-99.99,,,0.06,weatherlink.com 1.10,2013-06-18 13:49:00,
2013-06-18 10:04:00,72.7,70.0,29.93,West,263,1.0,-999.0,91,-99.99,,,0.07,weatherlink.com 1.10,2013-06-18 14:04:00,
2013-06-18 10:19:00,73.0,71.0,29.93,West,267,8.0,-999.0,92,-99.99,,,0.07,weatherlink.com 1.10,2013-06-18 14:19:00,
2013-06-18 10:34:00,74.0,72.0,29.93,SW,236,4.0,-999.0,92,-99.99,,,0.07,weatherlink.com 1.10,2013-06-18 14:34:00,
2013-06-18 10:49:00,74.8,72.0,29.93,West,263,13.0,-999.0,91,-99.99,,,0.07,weatherlink.com 1.10,2013-06-18 14:49:00,
2013-06-18 11:04:00,76.6,74.0,29.92,West,271,2.0,-999.0,90,-99.99,,,0.07,weatherlink.com 1.10,2013-06-18 15:04:00,
2013-06-18 11:19:00,76.2,73.0,29.93,West,263,2.0,-999.0,89,-99.99,,,0.07,weatherlink.com 1.10,2013-06-18 15:19:00,
2013-06-18 11:34:00,75.8,72.0,29.93,NNW,340,7.0,-999.0,89,-99.99,,,0.07,weatherlink.com 1.10,2013-06-18 15:34:00,
2013-06-18 11:49:00,76.5,72.0,29.92,WNW,286,5.0,-999.0,86,-99.99,,,0.07,weatherlink.com 1.10,2013-06-18 15:49:00,
2013-06-18 12:04:00,77.4,72.0,29.92,West,266,5.0,-999.0,84,-99.99,,,0.07,weatherlink.com 1.10,2013-06-18 16:04:00,
2013-06-18 12:19:00,77.9,73.0,29.92,NW,315,3.0,-999.0,84,-99.99,,,0.07,weatherlink.com 1.10,2013-06-18 16:19:00,
2013-06-18 12:34:00,78.7,72.0,29.92,NNW,333,5.0,-999.0,81,-99.99,,,0.07,weatherlink.com 1.10,2013-06-18 16:34:00,
2013-06-18 12:49:00,73.6,69.0,29.93,NW,321,8.0,-999.0,86,-99.99,,,0.07,weatherlink.com 1.10,2013-06-18 16:49:00,
2013-06-18 13:04:00,70.7,68.0,29.92,North,355,6.0,-999.0,92,-99.99,,,0.07,weatherlink.com 1.10,2013-06-18 17:04:00,
2013-06-18 13:19:00,71.7,69.0,29.92,NW,311,5.0,-999.0,91,-99.99,,,0.07,weatherlink.com 1.10,2013-06-18 17:19:00,
2013-06-18 13:34:00,73.5,71.0,29.91,NNW,333,9.0,-999.0,91,-99.99,,,0.07,weatherlink.com 1.10,2013-06-18 17:34:00,
2013-06-18 13:49:00,75.1,72.0,29.91,NW,320,8.0,-999.0,90,-99.99,,,0.08,weatherlink.com 1.10,2013-06-18 17:49:00,
2013-06-18 14:04:00,76.5,72.0,29.92,North,360,9.0,-999.0,87,-99.99,,,0.08,weatherlink.com 1.10,2013-06-18 18:04:00,
2013-06-18 14:19:00,73.4,71.0,29.91,NW,325,4.0,-999.0,91,-99.99,,,0.08,weatherlink.com 1.10,2013-06-18 18:19:00,
2013-06-18 14:34:00,74.8,71.0,29.91,NW,325,8.0,-999.0,89,-99.99,,,0.08,weatherlink.com 1.10,2013-06-18 18:34:00,
2013-06-18 14:49:00,76.1,72.0,29.91,North,355,5.0,-999.0,88,-99.99,,,0.08,weatherlink.com 1.10,2013-06-18 18:49:00,
2013-06-18 15:04:00,76.2,73.0,29.91,NNW,337,7.0,-999.0,88,-99.99,,,0.08,weatherlink.com 1.10,2013-06-18 19:04:00,
2013-06-18 15:19:00,77.4,73.0,29.90,NW,323,8.0,-999.0,85,-99.99,,,0.08,weatherlink.com 1.10,2013-06-18 19:19:00,
2013-06-18 15:34:00,77.7,71.0,29.90,NNW,333,10.0,-999.0,81,-99.99,,,0.08,weatherlink.com 1.10,2013-06-18 19:34:00,
2013-06-18 15:49:00,78.2,72.0,29.90,NNW,348,6.0,-999.0,80,-99.99,,,0.09,weatherlink.com 1.10,2013-06-18 19:49:00,
2013-06-18 16:04:00,76.6,71.0,29.90,NNE,12,12.0,-999.0,82,-99.99,,,0.09,weatherlink.com 1.10,2013-06-18 20:04:00,
2013-06-18 16:19:00,75.1,70.0,29.90,NNE,13,11.0,-999.0,85,-99.99,,,0.09,weatherlink.com 1.10,2013-06-18 20:19:00,
2013-06-18 16:34:00,74.9,71.0,29.91,North,5,9.0,-999.0,86,-99.99,,,0.09,weatherlink.com 1.10,2013-06-18 20:34:00,
2013-06-18 16:49:00,75.1,70.0,29.90,NNE,20,7.0,-999.0,85,-99.99,,,0.09,weatherlink.com 1.10,2013-06-18 20:49:00,
2013-06-18 17:04:00,76.7,71.0,29.90,NNE,32,11.0,-999.0,83,-99.99,,,0.09,weatherlink.com 1.10,2013-06-18 21:04:00,
2013-06-18 17:19:00,77.4,71.0,29.90,NNE,19,11.0,-999.0,80,-99.99,,,0.09,weatherlink.com 1.10,2013-06-18 21:19:00,
2013-06-18 17:34:00,77.8,72.0,29.90,North,355,6.0,-999.0,82,-99.99,,,0.00,weatherlink.com 1.10,2013-06-18 21:34:00,
2013-06-18 17:49:00,77.7,71.0,29.90,NNE,19,4.0,-999.0,81,-99.99,,,0.00,weatherlink.com 1.10,2013-06-18 21:49:00,
2013-06-18 18:04:00,76.7,71.0,29.90,North,11,6.0,-999.0,82,-99.99,,,0.00,weatherlink.com 1.10,2013-06-18 22:04:00,
2013-06-18 18:19:00,76.7,71.0,29.89,NNE,15,4.0,-999.0,82,-99.99,,,0.00,weatherlink.com 1.10,2013-06-18 22:19:00,
2013-06-18 18:35:00,78.2,71.0,29.89,NE,34,10.0,-999.0,79,-99.99,,,0.00,weatherlink.com 1.10,2013-06-18 22:35:00,
2013-06-18 18:50:00,76.7,70.0,29.89,NNE,13,6.0,-999.0,79,-99.99,,,0.00,weatherlink.com 1.10,2013-06-18 22:50:00,
2013-06-18 19:05:00,77.4,70.0,29.90,NNE,24,3.0,-999.0,79,-99.99,,,0.00,weatherlink.com 1.10,2013-06-18 23:05:00,
2013-06-18 19:20:00,77.4,70.0,29.90,NE,39,5.0,-999.0,77,-99.99,,,0.01,weatherlink.com 1.10,2013-06-18 23:20:00,
2013-06-18 19:35:00,76.5,70.0,29.90,NNE,24,3.0,-999.0,79,-99.99,,,0.01,weatherlink.com 1.10,2013-06-18 23:35:00,
2013-06-18 19:50:00,77.4,69.0,29.91,North,355,3.0,-999.0,76,-99.99,,,0.01,weatherlink.com 1.10,2013-06-18 23:50:00,
2013-06-18 20:05:00,77.4,69.0,29.91,NNE,13,6.0,-999.0,75,-99.99,,,0.01,weatherlink.com 1.10,2013-06-19 00:05:00,
2013-06-18 20:20:00,76.4,69.0,29.91,NNE,26,5.0,-999.0,78,-99.99,,,0.01,weatherlink.com 1.10,2013-06-19 00:20:00,
2013-06-18 20:35:00,75.0,69.0,29.91,NNE,26,0.0,-999.0,81,-99.99,,,0.01,weatherlink.com 1.10,2013-06-19 00:35:00,
2013-06-18 20:50:00,74.4,69.0,29.92,NE,38,0.0,-999.0,82,-99.99,,,0.01,weatherlink.com 1.10,2013-06-19 00:50:00,
2013-06-18 21:05:00,73.5,68.0,29.92,NNE,25,0.0,-999.0,83,-99.99,,,0.01,weatherlink.com 1.10,2013-06-19 01:05:00,
2013-06-18 21:20:00,72.7,68.0,29.93,NNE,13,0.0,-999.0,85,-99.99,,,0.01,weatherlink.com 1.10,2013-06-19 01:20:00,
2013-06-18 21:35:00,72.1,67.0,29.93,NNE,15,0.0,-999.0,85,-99.99,,,0.01,weatherlink.com 1.10,2013-06-19 01:35:00,
2013-06-18 21:50:00,71.6,68.0,29.93,NNE,15,0.0,-999.0,87,-99.99,,,0.01,weatherlink.com 1.10,2013-06-19 01:50:00,
2013-06-18 22:05:00,71.0,67.0,29.94,NNE,15,0.0,-999.0,87,-99.99,,,0.01,weatherlink.com 1.10,2013-06-19 02:05:00,
2013-06-18 22:20:00,70.5,67.0,29.95,NNE,15,0.0,-999.0,88,-99.99,,,0.01,weatherlink.com 1.10,2013-06-19 02:20:00,
2013-06-18 22:35:00,69.9,67.0,29.95,NNE,15,0.0,-999.0,89,-99.99,,,0.01,weatherlink.com 1.10,2013-06-19 02:35:00,
2013-06-18 22:50:00,69.5,67.0,29.95,NNE,15,0.0,-999.0,90,-99.99,,,0.01,weatherlink.com 1.10,2013-06-19 02:50:00,
2013-06-18 23:05:00,69.0,66.0,29.96,NNE,15,0.0,-999.0,91,-99.99,,,0.02,weatherlink.com 1.10,2013-06-19 03:05:00,
2013-06-18 23:20:00,68.7,66.0,29.96,NNE,15,0.0,-999.0,91,-99.99,,,0.02,weatherlink.com 1.10,2013-06-19 03:20:00,
2013-06-18 23:35:00,68.3,66.0,29.96,NNE,15,0.0,-999.0,91,-99.99,,,0.02,weatherlink.com 1.10,2013-06-19 03:35:00,
2013-06-18 23:50:00,67.9,66.0,29.97,NNE,15,0.0,-999.0,92,-99.99,,,0.02,weatherlink.com 1.10,2013-06-19 03:50:00,